Location: Neuvy Saint Sepulchre
(46.5953°N, 1.8122°E)
Time: 09:32:31
(UTC+02:00)

ISS - Pass Details

Date: 12 July 2021
Orbit: 419 x 421 km, 51.6° (Epoch: 04 August)

Event Time Altitude Azimuth Distance (km) Brightness Sun altitude
Rises 03:39:25 0° 289° (WNW) 2,370 0.0 -17.7°
Reaches altitude 10° 03:41:38 10° 299° (WNW) 1,505 -0.9 -17.6°
Maximum altitude 03:44:46 35° 7° (N) 702 -2.0 -17.4°
Drops below altitude 10° 03:47:54 10° 75° (ENE) 1,502 -0.4 -17.1°
Sets 03:50:07 0° 85° (E) 2,365 0.5 -16.9°
